Wind_Speed
28 29 28 28 28 28 28 28 27 26 25 25 26 26 26 26 27 27 28 28 28 29 29 30 31 32 34 38 41 44 46 47 47 48 48 47 45 43 41 38 37 37 37 36 35 35 33 32 31 31 31 31 31 33 35 36 36 36 40 44 46 47 46 46 47 48 49 47 47
26 27 27 26 26 26 26 25 24 23 23 23 24 26 26 27 27 27 28 28 28 28 28 29 30 32 34 38 41 43 45 46 46 46 47 46 45 43 41 39 36 36 37 37 36 35 34 32 32 32 33 32 32 32 34 36 35 36 39 44 46 48 48 48 49 49 49 49 47
25 25 25 25 25 24 23 22 22 22 23 24 24 25 25 26 26 27 27 27 28 27 27 28 29 30 33 36 39 42 44 45 45 44 44 45 44 42 40 38 37 37 38 37 36 35 34 33 32 33 34 33 33 33 34 36 37 37 39 43 46 47 47 48 49 50 51 52 50
22 23 23 23 22 21 20 21 22 24 25 25 25 25 25 25 26 26 26 26 26 26 26 27 27 28 30 33 36 39 40 41 42 42 42 42 41 40 38 37 37 37 37 36 35 34 34 33 32 33 35 36 35 34 34 36 39 38 38 41 44 45 45 46 48 50 52 55 53
19 20 20 20 20 20 21 23 24 25 25 26 25 25 25 25 25 25 25 25 26 26 26 26 26 27 29 31 34 36 37 38 40 40 40 40 39 38 36 34 35 37 37 36 35 34 34 33 33 33 34 37 38 36 35 36 39 39 38 39 41 42 43 45 47 49 50 51 50
18 19 19 20 21 23 24 25 25 25 25 25 25 24 23 24 24 24 23 24 24 25 25 25 26 27 29 30 31 32 34 36 37 38 37 37 36 36 35 35 36 37 36 35 35 35 35 34 33 33 33 35 38 38 38 38 40 39 37 37 38 39 40 43 43 44 44 44 44
19 21 21 22 24 25 25 25 24 24 24 25 23 22 22 22 23 23 23 23 22 23 23 24 26 27 28 29 29 29 31 32 35 36 36 35 35 35 35 35 36 35 35 35 35 35 35 35 34 33 33 33 35 37 39 40 41 40 37 34 34 35 35 35 37 39 40 40 41
19 21 22 23 23 24 25 23 22 22 22 23 22 21 22 22 22 22 22 21 21 21 22 24 26 27 28 29 28 28 29 31 33 34 35 34 34 34 35 35 35 35 34 34 34 34 35 36 36 35 34 33 33 34 37 40 41 41 38 35 33 33 33 33 35 37 38 39 42
19 20 20 21 21 22 23 22 21 21 20 20 21 21 21 21 21 20 20 19 20 21 22 24 26 27 27 27 29 29 30 32 32 33 34 34 34 34 34 35 34 33 33 33 33 33 34 36 37 38 37 35 33 32 34 38 40 41 39 37 36 34 34 34 35 35 37 39 42
18 19 19 19 19 20 20 21 20 20 19 19 20 20 20 20 20 20 19 19 20 21 22 24 26 26 27 28 29 30 31 32 32 33 34 34 34 34 33 33 32 33 33 33 32 32 33 34 35 37 39 39 35 33 33 36 38 40 41 40 38 37 37 38 38 37 37 39 43
16 17 17 17 17 18 19 19 19 18 18 18 19 19 19 20 20 20 19 20 21 21 22 23 25 27 28 28 29 30 30 31 30 31 31 33 32 32 32 32 32 32 32 32 31 31 31 33 34 36 38 40 38 35 35 36 38 40 42 41 39 39 40 41 41 40 40 42 43
13 14 15 16 16 17 17 17 16 16 16 16 17 18 18 19 19 19 19 19 20 20 21 22 23 26 27 26 27 27 28 29 29 30 30 30 30 30 31 31 31 31 31 31 30 31 32 33 34 36 38 40 40 39 38 38 39 40 41 41 40 40 42 44 44 42 42 45 44
12 12 13 13 14 15 15 15 15 14 14 15 15 16 17 18 18 19 19 18 19 20 21 22 22 24 25 26 25 26 27 28 28 29 28 28 28 29 30 30 29 29 30 30 30 31 32 33 33 35 38 40 40 41 40 40 39 40 41 42 42 43 44 46 45 43 43 45 45
10 10 11 12 12 13 14 14 13 13 13 13 14 15 16 18 19 20 20 20 20 21 21 22 22 23 24 25 25 26 27 27 28 28 27 27 27 28 28 29 29 29 29 29 30 31 32 31 31 32 35 38 39 39 40 40 40 41 43 43 43 44 45 46 45 44 44 45 46
8 9 10 10 11 12 12 12 12 12 12 12 13 14 15 16 18 19 21 21 21 21 21 21 22 23 24 25 26 27 27 27 27 27 27 27 26 27 27 28 29 29 28 28 30 31 31 28 27 28 32 34 36 38 39 40 42 44 45 44 43 43 44 45 45 45 45 45 46
6 7 8 8 9 10 10 10 11 11 12 12 13 13 13 14 15 16 18 20 20 20 20 21 22 23 24 26 27 27 27 27 27 27 27 27 27 27 27 28 29 29 28 28 30 31 30 27 26 27 30 32 35 38 40 43 45 46 45 43 42 41 42 45 44 44 44 45 44
3 4 5 6 7 7 8 8 9 11 12 12 12 11 11 12 13 15 16 18 18 19 20 20 22 23 24 26 26 27 26 27 27 27 27 27 27 27 27 29 30 30 29 28 30 31 30 27 27 28 30 33 36 40 43 45 45 43 41 40 39 39 40 42 42 41 41 42 42
3 4 5 6 6 6 7 7 9 10 11 11 11 11 11 12 14 15 17 17 18 19 20 21 22 23 24 25 25 25 25 26 27 27 28 28 28 28 28 30 30 30 30 30 31 31 30 28 29 30 31 33 37 41 43 43 42 40 39 38 37 37 38 38 38 38 39 40 40
2 3 4 5 6 7 7 8 9 9 9 9 11 12 13 14 16 17 18 18 18 19 21 21 22 23 24 24 24 24 25 26 27 28 29 29 29 29 29 30 30 30 31 32 32 31 30 30 31 32 32 32 36 39 41 41 40 40 39 37 36 36 37 36 37 37 37 38 38
3 3 4 4 6 7 8 8 9 9 9 11 12 14 15 16 17 18 19 19 20 21 22 23 24 24 25 25 25 25 26 27 28 29 30 29 29 30 30 31 31 32 33 33 32 31 30 30 32 33 32 32 34 37 38 38 39 39 38 37 36 35 36 36 36 36 36 36 36
2 3 4 5 6 7 7 8 9 10 11 13 13 14 15 17 18 20 21 21 22 22 23 25 25 26 26 27 26 27 27 28 29 30 30 30 30 30 31 31 32 33 34 34 33 31 30 31 32 33 32 31 32 34 36 36 36 37 36 36 34 34 34 34 34 34 34 34 34
2 3 4 6 6 6 7 8 10 11 12 13 14 15 17 19 20 21 22 22 23 24 25 26 27 28 28 28 27 27 28 28 29 29 29 29 30 31 32 34 34 35 35 34 34 32 30 31 32 33 32 31 31 33 33 33 33 33 33 32 32 31 31 31 31 30 30 30 30
2 3 3 4 5 6 8 10 11 11 12 13 15 17 19 21 22 22 23 23 24 25 25 26 28 29 29 28 27 27 27 28 28 27 27 28 30 32 35 36 36 36 36 35 35 33 31 31 32 32 32 31 31 32 32 32 31 31 30 30 29 29 29 28 28 27 26 26 26
3 3 4 5 5 6 7 7 8 9 11 13 15 18 20 22 23 24 24 25 25 25 25 26 28 28 28 28 28 27 27 27 26 26 27 28 31 34 36 38 38 37 36 37 36 35 33 32 32 32 32 32 32 31 31 30 30 29 29 28 28 27 26 26 26 25 25 24 24
4 4 5 6 6 5 4 5 7 10 13 15 18 20 22 23 24 25 25 26 27 26 26 27 28 28 28 28 28 27 26 25 25 26 28 30 32 34 36 38 38 37 37 38 38 36 34 33 32 32 32 32 31 30 29 29 28 28 27 27 26 25 25 25 24 24 24 24 24
5 6 6 6 5 3 5 8 11 14 16 18 20 22 23 23 24 25 26 27 27 27 26 28 29 29 29 28 27 25 24 24 26 27 29 32 35 36 37 37 37 37 37 39 38 36 35 34 33 32 31 31 30 29 28 27 27 26 26 25 25 25 25 25 24 23 23 23 23
6 7 7 6 4 4 8 12 14 16 17 18 19 21 22 22 23 24 25 25 25 25 27 29 29 29 29 27 25 24 25 26 27 29 31 35 37 37 36 36 36 37 39 39 37 36 34 33 33 32 30 29 28 28 27 26 25 25 24 24 24 25 25 24 24 24 23 23 23
7 9 8 6 4 6 10 13 14 14 14 14 15 17 19 21 21 21 20 21 22 24 27 28 29 28 27 26 25 26 28 29 31 32 34 36 37 38 38 37 38 38 39 38 36 35 34 34 33 32 30 28 27 26 26 25 25 24 24 24 24 24 25 24 24 24 24 23 23
10 11 10 6 4 6 10 11 10 9 8 8 9 11 15 16 16 16 19 22 25 26 27 28 29 28 28 28 29 31 32 33 34 35 37 38 39 39 39 38 38 38 37 36 36 35 35 34 33 32 30 29 27 27 27 26 26 25 25 24 24 23 23 23 23 23 23 23 22
12 12 9 5 2 5 6 5 3 6 10 12 12 13 14 17 19 23 26 28 29 30 30 31 31 31 31 32 33 34 35 36 36 38 39 40 40 40 39 39 38 36 35 35 35 35 34 33 33 32 31 30 30 30 30 30 29 28 27 26 26 25 24 23 23 22 22 22 21
10 9 6 3 1 3 3 2 8 15 20 23 25 26 27 28 28 29 30 31 32 32 33 33 34 34 35 35 36 36 37 37 38 38 39 40 41 40 39 38 37 35 34 34 34 33 32 31 30 30 30 31 31 31 31 31 30 29 28 28 27 26 26 25 25 24 24 23 21
7 6 4 2 2 2 2 8 16 23 27 30 31 33 34 33 33 33 33 33 34 34 35 35 36 36 37 37 38 38 38 38 38 39 40 40 40 39 38 37 36 34 33 33 32 31 30 29 28 28 28 29 30 30 30 30 29 28 27 27 26 26 26 26 25 25 25 24 23
7 6 5 4 4 5 9 16 22 26 29 32 34 36 37 36 36 36 36 36 36 36 37 38 38 38 38 39 40 40 39 39 39 39 39 39 39 38 37 36 35 33 32 31 30 30 29 28 27 26 26 27 28 29 29 28 27 26 26 25 25 25 24 24 24 24 24 24 24
9 9 10 10 11 14 18 22 25 27 30 34 36 38 38 37 37 36 36 36 36 37 38 39 39 40 40 41 41 40 40 39 38 38 37 37 37 36 36 35 34 32 31 29 28 27 27 27 27 26 25 25 26 27 27 27 26 25 25 24 23 23 23 22 22 22 22 23 23
14 16 18 19 20 21 23 24 26 29 32 35 37 38 38 37 37 36 36 36 36 38 39 39 40 40 41 41 41 40 39 38 37 36 36 36 36 36 35 34 33 32 29 27 25 24 24 24 24 25 24 24 25 25 26 25 25 25 24 23 22 21 20 20 20 21 21 22 22
19 21 23 23 24 25 25 25 27 29 31 34 36 37 38 37 37 36 35 35 36 38 38 39 40 41 41 41 40 38 37 36 36 36 35 35 35 35 34 33 32 30 28 26 24 23 22 22 22 22 23 23 23 24 24 24 24 23 22 22 21 20 19 19 19 19 20 21 21
21 22 23 24 25 25 26 27 28 30 32 34 35 36 36 37 36 36 35 35 36 37 38 40 41 41 40 39 38 37 36 36 35 35 35 34 34 33 33 32 31 29 27 26 24 23 23 22 21 21 21 22 22 22 22 22 21 21 20 20 20 20 19 19 18 18 19 20 20
21 22 23 25 26 27 28 29 30 32 34 35 35 35 36 36 36 36 35 35 36 38 39 40 40 39 38 37 37 36 36 36 36 35 34 33 33 32 32 31 30 29 28 26 25 25 24 23 22 21 21 20 20 20 20 20 19 19 19 19 19 19 20 20 20 20 20 20 21
22 23 25 26 28 29 30 32 33 34 35 36 36 36 36 36 37 37 36 36 37 38 39 39 38 37 37 36 36 36 36 36 35 35 34 32 32 31 31 31 30 29 28 26 25 25 24 23 22 21 20 19 19 19 18 18 18 18 18 19 19 20 21 22 23 23 23 22 22
23 24 26 27 29 30 31 33 34 35 36 36 36 36 36 37 37 37 37 37 38 38 37 37 36 36 36 36 36 36 36 36 35 34 33 32 31 30 29 29 28 27 26 25 24 23 22 22 21 20 19 18 18 18 18 18 18 18 18 19 20 21 22 23 24 24 24 23 23
25 26 27 28 29 30 31 33 34 35 36 36 36 36 36 36 36 37 37 37 37 37 36 36 37 37 37 37 37 37 37 36 35 33 32 30 30 29 28 27 26 25 24 23 22 21 20 19 19 18 18 17 17 17 17 17 17 18 18 19 19 20 21 21 21 22 22 21 21
Wind_Direction
219 217 212 207 206 206 205 204 205 206 207 209 210 209 207 206 206 206 205 204 203 203 204 204 204 204 205 207 209 210 211 212 213 216 218 219 220 221 222 221 220 220 218 217 218 219 220 219 217 216 216 216 215 212 210 210 210 204 199 198 199 198 195 194 196 197 197 195 195
212 207 203 201 201 200 200 201 203 205 208 210 210 209 208 206 205 205 204 203 202 202 203 204 205 205 206 208 210 211 212 212 214 216 218 220 221 222 222 221 219 218 218 217 218 219 219 219 217 216 215 215 213 210 207 207 206 202 198 197 197 195 195 195 197 197 196 195 193
199 196 194 195 195 195 197 199 203 207 210 211 210 208 206 205 205 204 203 203 202 201 202 204 205 205 206 208 210 211 212 213 213 215 218 220 222 222 221 220 220 219 219 217 217 217 218 218 218 217 215 214 210 207 205 204 204 202 198 196 195 194 194 195 196 196 195 194 193
188 189 189 191 192 194 197 201 206 209 211 210 208 206 204 203 203 203 202 202 201 201 202 203 203 203 204 206 208 210 211 211 213 215 218 220 221 221 220 219 219 219 219 218 216 215 216 216 217 216 214 212 210 206 203 202 202 202 200 197 196 195 195 195 194 194 194 194 193
184 187 189 193 196 199 202 205 207 208 208 207 205 204 202 202 201 201 201 200 200 201 201 201 201 201 202 204 206 208 210 211 213 215 217 219 220 220 218 216 217 219 219 218 216 214 214 214 214 214 213 212 211 208 204 201 201 202 202 200 198 197 197 197 195 193 192 191 190
188 191 194 198 200 202 204 205 206 205 204 202 202 201 201 200 200 200 199 199 199 200 200 200 199 199 201 203 205 207 210 212 214 215 216 217 218 218 217 217 218 220 220 219 217 215 214 213 212 212 211 211 211 210 206 202 201 201 202 201 199 198 198 196 194 192 191 189 186
192 193 195 198 199 201 202 203 203 202 201 199 200 200 200 199 198 198 197 197 197 198 198 199 199 199 201 202 204 207 209 211 213 215 216 216 216 215 215 216 217 219 220 220 218 216 214 212 211 210 209 208 209 209 208 205 202 202 202 200 198 196 195 194 192 191 190 188 185
190 191 193 195 196 197 198 199 199 198 198 198 199 199 198 197 196 195 196 196 196 196 198 200 200 201 201 202 204 206 208 210 212 214 215 214 214 214 215 216 218 219 219 218 216 215 214 212 211 209 208 207 207 206 205 204 203 204 204 202 199 197 195 194 193 192 190 187 184
186 188 190 192 192 192 193 194 195 194 195 196 197 196 195 194 194 193 194 195 195 197 200 202 202 203 203 203 205 206 207 209 210 213 214 213 213 215 216 218 218 217 216 215 214 213 213 214 214 214 213 209 206 203 200 200 201 204 206 207 205 203 201 199 197 194 190 186 184
183 184 184 185 187 188 189 190 191 191 192 194 193 193 194 193 193 194 194 195 197 200 203 207 206 204 204 205 207 208 208 209 211 213 214 214 214 214 215 215 215 214 214 213 212 211 212 215 218 220 218 213 208 203 199 198 200 203 207 209 210 208 205 202 200 197 192 187 185
175 175 175 177 180 183 184 186 188 189 189 191 192 193 195 196 195 196 197 198 200 202 205 209 210 208 206 207 209 210 211 211 211 212 214 215 215 214 212 212 211 211 212 212 211 211 212 214 217 220 220 216 210 206 203 201 202 203 206 207 207 205 203 200 198 195 191 188 185
164 167 169 171 175 178 181 183 186 187 188 190 192 195 197 199 198 198 199 201 202 203 205 208 211 210 207 206 208 211 212 212 213 214 215 215 214 212 210 209 209 210 211 211 212 212 214 215 216 216 215 213 210 207 206 204 203 203 202 202 200 198 196 193 192 190 189 189 187
156 161 165 167 170 175 179 181 184 187 189 191 194 197 199 199 200 201 201 203 204 204 204 206 210 210 207 204 206 209 211 212 213 213 213 212 211 209 207 207 208 209 211 212 213 215 216 216 216 212 207 204 205 206 206 204 202 199 196 194 192 189 187 186 187 187 187 189 189
150 157 162 166 170 176 180 181 184 189 192 195 198 200 201 201 201 202 201 202 205 207 206 204 207 208 207 206 208 210 212 212 211 210 209 209 208 207 206 205 207 209 211 214 216 216 216 215 213 206 199 197 200 203 203 201 197 192 189 187 186 184 182 182 183 185 187 189 192
146 155 162 168 175 180 183 184 188 192 197 201 204 204 202 200 201 201 200 201 204 207 207 204 206 207 207 206 208 210 210 209 209 208 208 207 208 207 206 205 207 209 212 214 217 217 215 214 209 200 194 193 195 197 197 194 190 187 185 184 183 182 181 181 182 184 187 189 191
147 157 167 175 182 186 187 189 194 199 204 208 209 207 202 199 203 205 205 204 204 205 206 206 207 208 208 206 206 207 207 207 208 208 209 208 208 208 207 207 209 210 211 213 216 216 214 211 204 197 191 189 189 189 189 186 184 183 183 182 182 182 182 183 184 184 186 188 189
189 187 190 194 195 195 194 196 205 211 211 208 207 207 205 202 204 211 214 212 207 206 206 207 208 210 211 209 206 205 206 206 208 210 211 210 209 208 208 210 210 210 211 213 214 214 211 207 200 194 189 185 181 181 181 181 181 181 182 182 182 182 183 184 184 184 185 188 189
230 228 221 213 206 204 204 206 215 217 213 205 202 204 207 206 208 213 218 218 211 208 209 210 210 211 213 213 210 207 206 206 209 211 212 212 210 208 208 210 209 209 210 212 213 211 208 202 195 189 184 179 176 175 177 179 181 182 183 183 183 183 183 182 182 183 186 188 190
184 209 214 206 196 198 206 212 217 217 212 207 208 208 208 209 211 214 218 219 215 212 212 214 214 214 215 216 214 211 208 208 210 212 213 212 210 209 208 209 207 206 207 209 209 207 205 199 190 184 180 176 173 174 177 179 182 184 185 183 183 183 183 183 183 185 187 190 190
149 170 188 194 189 195 204 210 214 216 216 217 218 216 213 212 214 217 219 221 220 218 216 216 216 216 216 216 216 214 212 212 213 214 214 213 210 208 207 206 205 203 203 204 203 203 200 194 186 180 176 174 174 175 177 179 180 181 182 181 181 183 185 186 187 188 190 191 190
163 173 182 189 192 197 202 206 212 218 222 224 225 223 220 218 219 221 222 223 223 223 221 219 218 217 217 216 216 215 215 215 215 215 215 213 211 208 206 203 201 198 197 198 200 200 195 188 181 177 176 175 174 175 176 177 177 177 178 179 180 182 185 186 187 189 190 191 192
168 168 169 175 184 194 202 208 214 220 225 227 228 228 227 226 225 225 226 227 227 227 225 222 220 218 217 216 215 215 216 216 216 217 216 214 210 207 203 199 194 189 188 192 197 196 190 183 179 178 177 176 175 175 175 175 175 174 175 176 178 180 182 184 186 186 187 189 190
155 148 147 159 179 197 207 213 219 224 229 230 232 233 234 233 232 232 231 232 233 232 230 226 222 219 217 215 214 214 215 216 217 217 215 212 208 203 197 190 184 181 181 188 194 192 185 180 179 179 178 176 175 174 174 174 174 173 173 174 176 177 180 182 182 182 182 183 184
150 153 159 170 184 197 208 218 229 237 242 244 244 245 245 244 242 240 239 240 240 238 233 227 222 218 215 212 211 212 214 216 215 213 209 204 199 192 185 178 174 174 176 183 188 187 181 177 177 177 175 174 173 173 173 173 172 172 172 172 173 175 176 178 178 178 178 179 180
175 177 177 178 182 191 216 252 268 271 270 267 264 260 256 252 248 245 244 244 243 239 232 224 218 213 209 207 207 209 212 214 210 204 197 188 180 173 169 166 167 168 171 177 182 180 175 173 172 172 171 171 171 171 171 171 170 170 170 170 169 170 172 173 174 175 177 178 180
194 189 183 177 181 212 266 283 287 286 283 278 272 266 259 253 248 245 244 244 242 235 224 214 208 204 201 200 202 205 208 207 199 189 177 166 161 159 160 161 163 164 168 173 175 173 169 168 168 168 168 168 168 168 168 168 168 168 168 167 167 168 169 171 172 174 176 178 181
201 188 180 179 201 267 290 295 294 291 285 279 272 264 258 251 248 246 243 239 232 222 210 201 196 193 191 192 195 197 197 192 182 169 158 153 152 154 157 159 161 164 167 169 168 166 165 165 165 165 165 165 165 165 164 164 165 166 166 166 166 167 168 169 170 172 174 176 180
195 185 183 191 235 286 298 300 297 289 278 268 261 258 257 253 250 243 232 217 205 196 192 189 186 182 180 182 185 185 181 175 166 157 150 147 148 151 154 157 161 164 166 165 163 163 164 165 165 164 162 161 161 161 161 161 162 163 165 166 167 168 169 169 170 171 172 174 177
184 182 183 196 248 294 303 301 290 269 244 225 227 240 245 241 228 207 188 178 173 173 174 176 174 172 172 175 177 175 169 163 157 152 148 146 147 148 151 154 157 159 160 161 162 162 163 164 163 162 160 159 159 160 161 161 161 163 164 165 166 167 169 170 171 171 173 174 177
172 172 175 188 260 306 310 298 242 177 159 156 159 170 178 176 166 159 157 157 158 160 163 164 164 166 169 172 171 167 162 157 153 149 147 146 146 147 148 150 151 153 155 158 160 161 161 161 161 161 161 161 161 161 162 162 162 163 163 164 165 166 167 169 171 172 174 176 178
166 165 168 180 292 316 308 194 145 135 130 128 131 137 143 146 146 147 149 151 153 155 157 159 162 165 167 167 163 160 157 153 150 148 147 146 146 146 146 147 148 150 153 156 157 156 156 156 158 160 162 163 164 163 163 162 162 162 163 163 164 166 168 170 171 172 174 176 179
174 175 183 211 280 287 208 148 134 127 123 121 123 127 132 136 139 141 144 147 148 151 154 157 160 162 162 159 158 156 154 151 149 147 147 147 146 145 145 145 146 149 152 154 154 153 154 156 158 161 163 165 165 164 163 162 161 161 162 163 165 167 169 171 172 174 175 177 179
186 192 201 204 198 173 151 138 129 124 121 120 121 125 128 132 136 138 141 144 147 149 152 155 157 156 155 154 154 153 151 150 148 147 147 146 146 145 144 145 146 149 152 154 156 157 159 160 161 162 163 164 164 163 161 161 161 161 161 163 164 166 169 171 173 175 178 180 182
168 167 164 161 155 147 139 133 128 123 120 119 121 124 129 133 135 138 141 145 148 149 151 153 154 154 152 151 150 150 150 149 148 147 146 145 145 144 144 145 147 149 152 155 158 160 162 163 162 162 162 161 161 160 160 160 160 161 162 163 165 167 169 171 174 178 180 183 185
137 135 135 136 136 134 131 128 126 123 121 119 120 124 130 134 136 137 141 144 147 148 150 152 152 152 150 148 148 148 148 148 147 146 144 143 143 144 144 146 147 148 150 153 155 157 159 159 160 160 160 160 159 159 159 159 160 161 162 164 165 168 170 173 176 179 182 185 188
125 125 125 126 127 126 125 126 127 125 123 121 121 124 127 130 132 135 139 143 147 149 150 150 149 148 146 146 147 147 147 146 145 144 143 143 144 144 145 145 145 145 146 147 148 149 151 152 155 157 159 160 159 159 159 159 159 160 161 163 165 169 172 176 178 180 183 186 189
122 121 122 123 124 124 125 127 128 127 125 124 123 124 126 128 130 135 140 146 149 149 147 146 145 145 145 146 146 146 145 145 144 144 144 145 145 145 143 141 140 140 140 141 142 143 144 146 149 153 156 158 159 159 159 159 159 160 161 164 167 171 175 178 180 181 182 184 188
119 118 118 121 123 124 126 127 128 127 126 125 126 128 129 132 134 137 142 147 147 145 143 143 143 145 146 147 147 146 145 145 144 144 144 144 143 141 138 137 136 137 138 139 140 142 144 146 149 152 155 156 157 158 159 160 162 164 167 170 173 177 181 183 185 186 186 186 187
115 115 116 119 121 123 125 126 126 125 124 125 127 130 133 135 136 138 140 143 143 143 143 143 143 145 146 147 148 147 146 145 144 143 142 140 139 138 137 137 138 139 141 143 145 147 149 152 154 157 158 159 160 161 163 165 168 172 176 180 183 186 188 190 192 193 194 193 192
113 114 115 117 120 122 124 124 123 123 123 124 126 129 131 133 135 137 139 141 142 144 144 143 142 143 145 146 148 147 145 143 142 141 140 139 140 140 141 141 143 145 148 151 153 155 157 159 161 162 163 164 164 166 168 171 175 179 182 186 189 192 193 194 196 198 199 199 199
111 113 115 117 120 122 123 122 121 122 123 125 126 128 130 132 134 136 138 140 141 142 141 140 140 140 142 143 144 143 142 141 140 140 140 141 142 143 144 145 146 147 150 153 155 158 159 159 159 160 161 162 164 165 169 172 175 178 180 182 186 189 191 192 194 196 197 198 199
Height
1323 1324 1327 1329 1332 1334 1336 1338 1340 1342 1343 1345 1347 1348 1349 1351 1352 1353 1354 1355 1357 1358 1359 1360 1361 1362 1363 1365 1366 1368 1369 1371 1373 1374 1376 1377 1378 1380 1382 1384 1386 1388 1389 1391 1393 1395 1396 1397 1398 1399 1400 1401 1402 1403 1404 1406 1407 1408 1409 1411 1413 1414 1416 1418 1420 1423 1425 1427 1429
1320 1323 1325 1328 1330 1333 1335 1336 1338 1339 1342 1344 1345 1347 1348 1349 1350 1351 1353 1353 1354 1356 1357 1358 1359 1360 1362 1363 1364 1366 1368 1369 1371 1372 1373 1375 1377 1378 1380 1383 1384 1386 1387 1389 1391 1392 1394 1395 1396 1397 1398 1399 1400 1401 1403 1404 1405 1407 1408 1410 1411 1413 1415 1417 1418 1421 1423 1426 1428
1319 1322 1324 1327 1329 1331 1332 1333 1335 1338 1341 1343 1345 1346 1347 1348 1348 1350 1351 1352 1353 1354 1355 1357 1358 1359 1360 1362 1363 1364 1366 1367 1369 1370 1371 1373 1375 1377 1379 1380 1382 1383 1385 1387 1388 1390 1391 1393 1394 1395 1396 1397 1398 1399 1401 1403 1404 1405 1407 1409 1411 1413 1414 1416 1418 1420 1423 1424 1427
1319 1321 1323 1324 1326 1328 1329 1332 1335 1338 1341 1343 1343 1344 1345 1346 1347 1348 1349 1350 1351 1353 1354 1355 1356 1357 1358 1360 1361 1363 1364 1365 1367 1368 1370 1371 1373 1375 1377 1378 1380 1382 1383 1384 1386 1388 1389 1391 1392 1393 1394 1395 1396 1398 1399 1400 1402 1404 1406 1408 1409 1411 1413 1415 1417 1418 1421 1423 1425
1318 1320 1321 1323 1325 1327 1330 1333 1336 1338 1340 1341 1342 1343 1343 1344 1345 1346 1347 1348 1350 1351 1352 1353 1354 1356 1357 1358 1360 1361 1363 1364 1365 1367 1369 1370 1372 1373 1375 1377 1378 1380 1381 1383 1384 1386 1388 1389 1391 1392 1393 1393 1394 1396 1397 1398 1401 1403 1405 1406 1408 1410 1412 1413 1415 1417 1419 1422 1425
1318 1319 1321 1323 1326 1329 1332 1334 1336 1337 1338 1339 1340 1341 1342 1343 1343 1344 1346 1347 1348 1349 1351 1352 1353 1354 1355 1357 1358 1360 1361 1363 1364 1366 1368 1369 1370 1372 1374 1376 1377 1378 1379 1381 1382 1384 1386 1388 1389 1390 1391 1392 1393 1394 1395 1397 1399 1402 1404 1405 1407 1408 1409 1411 1413 1416 1419 1421 1424
1319 1321 1323 1325 1328 1330 1332 1333 1334 1335 1336 1337 1338 1339 1340 1341 1342 1343 1344 1346 1347 1348 1349 1350 1352 1353 1354 1356 1358 1359 1361 1362 1363 1365 1366 1368 1369 1371 1372 1374 1375 1377 1378 1379 1380 1382 1384 1385 1387 1388 1389 1390 1391 1392 1393 1395 1398 1400 1403 1404 1405 1407 1408 1410 1413 1415 1418 1419 1422
1319 1321 1323 1325 1327 1328 1330 1332 1333 1334 1335 1336 1337 1338 1339 1340 1341 1342 1343 1345 1346 1347 1348 1349 1350 1352 1353 1355 1357 1358 1360 1361 1362 1363 1364 1366 1368 1369 1370 1372 1373 1375 1376 1378 1379 1380 1382 1383 1384 1385 1387 1388 1390 1391 1392 1393 1396 1399 1401 1402 1403 1405 1407 1409 1412 1414 1416 1418 1420
1319 1321 1323 1324 1326 1327 1329 1330 1332 1333 1334 1335 1335 1336 1337 1338 1340 1341 1343 1344 1345 1346 1347 1348 1349 1351 1353 1354 1355 1357 1358 1359 1360 1362 1363 1364 1366 1368 1369 1370 1372 1373 1375 1376 1377 1378 1379 1380 1381 1383 1384 1387 1388 1389 1391 1392 1395 1397 1399 1400 1402 1405 1408 1410 1412 1414 1415 1417 1418
1319 1320 1321 1323 1325 1327 1328 1329 1331 1332 1333 1333 1334 1335 1336 1337 1338 1340 1341 1343 1344 1345 1346 1347 1348 1350 1352 1353 1354 1355 1357 1358 1359 1360 1361 1363 1364 1365 1367 1368 1370 1372 1373 1374 1375 1376 1377 1378 1379 1380 1382 1385 1387 1388 1389 1391 1393 1395 1398 1400 1402 1405 1408 1410 1413 1414 1415 1417 1418
1318 1319 1321 1323 1325 1326 1327 1328 1329 1330 1331 1333 1334 1335 1335 1336 1338 1339 1340 1342 1343 1344 1346 1346 1347 1348 1350 1351 1353 1354 1355 1357 1358 1360 1361 1361 1363 1364 1366 1367 1369 1370 1371 1372 1373 1374 1375 1376 1378 1379 1380 1383 1385 1387 1388 1389 1391 1394 1397 1399 1402 1404 1407 1409 1412 1413 1415 1416 1417
1318 1319 1320 1322 1324 1326 1327 1328 1328 1329 1331 1332 1333 1334 1335 1336 1337 1338 1340 1341 1342 1343 1344 1346 1346 1348 1349 1351 1352 1353 1354 1356 1358 1359 1360 1361 1362 1363 1365 1366 1367 1368 1369 1370 1371 1372 1373 1374 1376 1377 1378 1380 1383 1384 1385 1387 1390 1393 1396 1399 1402 1404 1405 1407 1409 1412 1413 1415 1417
1318 1320 1321 1322 1324 1325 1326 1327 1328 1329 1330 1331 1332 1333 1334 1335 1337 1338 1339 1340 1341 1342 1343 1344 1346 1347 1348 1350 1351 1353 1354 1355 1357 1358 1359 1360 1361 1362 1363 1364 1365 1366 1367 1368 1369 1370 1371 1373 1374 1375 1376 1378 1380 1382 1383 1386 1388 1392 1395 1398 1400 1402 1403 1405 1407 1410 1412 1414 1416
1319 1320 1321 1323 1323 1325 1326 1327 1328 1329 1330 1331 1331 1332 1333 1334 1335 1336 1338 1339 1340 1341 1342 1344 1345 1346 1348 1349 1351 1352 1353 1354 1356 1357 1358 1359 1360 1361 1362 1363 1364 1365 1366 1366 1367 1368 1370 1372 1373 1373 1374 1376 1378 1379 1382 1385 1388 1391 1394 1397 1399 1400 1402 1403 1405 1408 1410 1413 1414
1320 1321 1322 1323 1324 1325 1326 1327 1328 1328 1329 1330 1331 1331 1332 1333 1334 1335 1336 1338 1339 1341 1342 1343 1344 1346 1347 1348 1350 1351 1352 1353 1354 1356 1357 1358 1358 1359 1360 1361 1362 1363 1364 1365 1366 1368 1369 1371 1372 1373 1373 1375 1376 1378 1381 1385 1388 1391 1394 1396 1397 1398 1400 1402 1404 1406 1408 1411 1413
1319 1321 1322 1323 1323 1324 1325 1326 1327 1327 1328 1329 1329 1330 1331 1333 1334 1335 1336 1337 1338 1340 1342 1342 1344 1345 1346 1347 1349 1350 1351 1352 1353 1354 1355 1356 1357 1358 1358 1359 1361 1362 1363 1364 1365 1367 1369 1371 1372 1373 1373 1375 1376 1378 1381 1385 1388 1391 1393 1395 1396 1397 1398 1400 1403 1405 1407 1409 1411
1319 1319 1320 1321 1322 1323 1323 1324 1325 1326 1327 1328 1328 1329 1331 1333 1334 1335 1336 1336 1337 1339 1340 1342 1343 1344 1345 1346 1347 1348 1349 1351 1352 1353 1354 1354 1355 1356 1357 1358 1359 1361 1362 1363 1364 1367 1369 1371 1372 1373 1374 1375 1377 1379 1382 1385 1388 1389 1391 1393 1395 1396 1398 1399 1402 1404 1406 1408 1410
1320 1320 1320 1320 1321 1322 1323 1324 1325 1325 1326 1327 1328 1329 1331 1333 1334 1335 1335 1336 1337 1338 1339 1341 1342 1344 1345 1345 1345 1346 1347 1349 1350 1351 1352 1353 1354 1355 1356 1357 1358 1360 1362 1363 1364 1366 1368 1371 1372 1373 1374 1376 1377 1379 1382 1385 1387 1389 1391 1393 1395 1396 1398 1400 1402 1404 1406 1408 1409
1321 1321 1321 1321 1322 1322 1323 1324 1324 1325 1326 1327 1328 1329 1331 1332 1333 1334 1335 1336 1337 1338 1339 1340 1342 1343 1344 1344 1345 1345 1346 1347 1348 1349 1350 1352 1353 1353 1355 1356 1358 1359 1361 1362 1364 1366 1368 1370 1372 1373 1374 1376 1378 1380 1382 1384 1387 1388 1391 1393 1395 1397 1398 1400 1402 1404 1405 1407 1409
1321 1321 1322 1321 1322 1322 1323 1323 1324 1325 1326 1327 1328 1329 1330 1331 1332 1333 1334 1334 1336 1337 1338 1339 1341 1342 1343 1343 1344 1345 1345 1346 1347 1348 1348 1350 1351 1352 1353 1355 1357 1359 1361 1362 1364 1366 1369 1371 1372 1373 1375 1377 1379 1381 1383 1385 1387 1389 1391 1393 1395 1397 1398 1400 1402 1403 1404 1406 1408
1321 1322 1322 1321 1322 1322 1323 1323 1324 1325 1326 1327 1327 1328 1329 1330 1331 1331 1332 1333 1334 1335 1337 1338 1339 1340 1341 1342 1343 1343 1344 1344 1345 1346 1347 1348 1349 1351 1353 1354 1356 1358 1360 1361 1364 1367 1369 1371 1372 1373 1375 1378 1380 1382 1383 1385 1387 1389 1390 1392 1394 1396 1398 1399 1401 1403 1404 1406 1408
1321 1321 1320 1320 1321 1322 1322 1323 1324 1324 1325 1326 1326 1327 1328 1328 1329 1329 1330 1331 1333 1334 1335 1336 1337 1338 1339 1340 1341 1342 1342 1343 1343 1344 1345 1346 1348 1349 1352 1354 1356 1358 1359 1361 1364 1367 1369 1371 1372 1373 1376 1378 1380 1382 1384 1385 1387 1388 1389 1391 1393 1395 1398 1399 1401 1402 1404 1406 1408
1321 1320 1320 1320 1321 1321 1322 1322 1323 1323 1324 1324 1325 1325 1326 1326 1327 1327 1328 1329 1330 1331 1333 1334 1336 1337 1337 1338 1340 1340 1341 1341 1342 1343 1344 1345 1347 1348 1350 1353 1355 1356 1358 1362 1365 1368 1370 1371 1373 1374 1376 1378 1380 1382 1383 1385 1386 1388 1389 1391 1393 1395 1397 1399 1401 1403 1404 1406 1408
1319 1319 1320 1320 1320 1320 1321 1321 1322 1322 1322 1323 1323 1323 1323 1323 1324 1325 1326 1327 1328 1328 1330 1332 1333 1334 1336 1337 1338 1339 1340 1340 1341 1342 1343 1344 1345 1347 1349 1352 1354 1356 1358 1362 1365 1368 1370 1372 1373 1374 1376 1378 1380 1382 1383 1385 1386 1388 1389 1391 1393 1395 1397 1399 1401 1403 1404 1407 1408
1319 1319 1319 1319 1319 1320 1320 1320 1320 1320 1320 1320 1319 1320 1320 1321 1321 1323 1323 1324 1325 1326 1328 1329 1331 1333 1334 1336 1337 1338 1338 1339 1340 1341 1342 1343 1344 1346 1349 1352 1354 1356 1358 1362 1366 1368 1370 1371 1373 1375 1377 1378 1380 1382 1383 1385 1386 1388 1389 1391 1393 1395 1397 1399 1401 1403 1405 1407 1409
1318 1318 1318 1318 1319 1319 1319 1318 1318 1318 1317 1317 1317 1317 1317 1318 1319 1320 1322 1322 1323 1324 1326 1328 1329 1331 1333 1334 1336 1337 1338 1339 1340 1341 1342 1343 1344 1347 1349 1352 1354 1357 1359 1363 1366 1368 1370 1372 1373 1376 1378 1379 1381 1382 1384 1385 1386 1388 1390 1392 1393 1395 1397 1399 1401 1403 1405 1407 1409
1318 1318 1318 1318 1318 1318 1317 1317 1316 1316 1315 1314 1314 1314 1314 1315 1317 1318 1319 1320 1320 1322 1324 1326 1328 1330 1332 1334 1335 1337 1339 1340 1341 1342 1342 1343 1345 1347 1350 1353 1355 1357 1360 1363 1365 1368 1370 1372 1374 1376 1378 1380 1381 1383 1384 1385 1387 1389 1391 1392 1394 1396 1397 1399 1401 1403 1405 1407 1409
1318 1318 1318 1317 1317 1317 1316 1315 1315 1314 1313 1313 1313 1312 1312 1313 1314 1315 1316 1318 1319 1321 1323 1325 1328 1330 1332 1333 1336 1338 1339 1340 1341 1341 1342 1343 1345 1348 1350 1353 1355 1358 1360 1363 1366 1368 1370 1372 1374 1376 1378 1379 1381 1383 1384 1386 1388 1390 1391 1393 1394 1396 1398 1400 1402 1403 1405 1408 1409
1317 1317 1317 1317 1316 1316 1315 1314 1314 1313 1312 1312 1311 1311 1311 1311 1312 1313 1314 1316 1318 1320 1322 1324 1326 1328 1331 1333 1335 1337 1337 1338 1339 1340 1341 1343 1345 1348 1351 1353 1356 1359 1362 1364 1366 1368 1370 1372 1373 1375 1377 1379 1381 1383 1385 1387 1388 1390 1392 1393 1395 1397 1399 1400 1402 1404 1406 1407 1408
1316 1316 1316 1316 1316 1315 1314 1314 1313 1312 1311 1311 1311 1311 1311 1311 1312 1313 1313 1315 1317 1319 1321 1323 1325 1328 1331 1333 1335 1336 1337 1338 1339 1341 1342 1344 1346 1349 1352 1355 1358 1360 1363 1365 1367 1368 1370 1372 1373 1375 1377 1378 1380 1382 1383 1385 1387 1389 1391 1393 1395 1397 1399 1401 1402 1404 1405 1407 1408
1316 1316 1315 1315 1315 1314 1314 1314 1313 1312 1312 1312 1312 1311 1311 1310 1311 1312 1313 1315 1317 1320 1322 1323 1326 1329 1332 1333 1335 1336 1338 1339 1341 1342 1344 1345 1348 1350 1353 1356 1359 1362 1364 1366 1367 1369 1371 1373 1374 1376 1377 1378 1380 1381 1383 1385 1386 1388 1390 1392 1393 1395 1397 1399 1401 1403 1404 1406 1407
1315 1315 1315 1314 1314 1314 1314 1314 1314 1313 1313 1312 1312 1311 1310 1311 1312 1313 1315 1317 1319 1321 1323 1325 1328 1330 1332 1334 1336 1338 1339 1340 1342 1343 1345 1347 1349 1352 1354 1357 1360 1363 1366 1368 1369 1371 1372 1374 1376 1377 1378 1380 1381 1382 1384 1385 1387 1388 1390 1391 1393 1395 1396 1398 1399 1401 1403 1404 1406
1316 1315 1315 1314 1314 1315 1316 1316 1316 1315 1314 1313 1311 1310 1310 1311 1313 1314 1316 1318 1320 1322 1324 1327 1329 1331 1333 1335 1336 1338 1339 1341 1343 1345 1347 1349 1351 1353 1356 1358 1361 1364 1367 1369 1371 1372 1373 1375 1377 1378 1379 1381 1382 1383 1385 1386 1387 1389 1390 1392 1393 1395 1397 1398 1400 1401 1403 1403 1405
1317 1316 1316 1316 1316 1317 1318 1318 1318 1317 1315 1313 1311 1311 1312 1313 1314 1316 1318 1320 1322 1324 1326 1329 1330 1332 1333 1335 1337 1338 1340 1342 1344 1346 1348 1350 1352 1354 1357 1359 1362 1365 1368 1370 1372 1373 1374 1375 1377 1378 1380 1381 1383 1384 1385 1387 1388 1389 1390 1392 1393 1395 1397 1398 1400 1401 1402 1403 1404
1318 1317 1317 1317 1318 1318 1319 1319 1318 1317 1315 1313 1312 1313 1313 1315 1317 1318 1320 1322 1324 1327 1329 1331 1332 1333 1334 1335 1337 1339 1340 1342 1345 1347 1349 1352 1354 1356 1358 1360 1363 1365 1368 1370 1372 1373 1374 1376 1377 1378 1380 1382 1383 1384 1385 1387 1388 1389 1391 1393 1394 1395 1397 1398 1399 1401 1402 1403 1404
1319 1319 1318 1318 1319 1319 1319 1319 1318 1317 1316 1315 1314 1315 1316 1317 1319 1321 1323 1325 1327 1329 1331 1332 1333 1334 1335 1337 1338 1340 1342 1343 1346 1348 1351 1353 1355 1357 1359 1361 1363 1366 1368 1370 1372 1373 1375 1377 1378 1379 1381 1382 1383 1385 1386 1387 1389 1390 1392 1393 1394 1396 1397 1398 1399 1400 1402 1403 1404
1321 1320 1320 1320 1320 1320 1320 1319 1319 1318 1318 1318 1318 1318 1319 1320 1322 1324 1326 1328 1329 1331 1332 1333 1334 1336 1338 1339 1341 1342 1343 1345 1348 1350 1353 1355 1357 1358 1360 1362 1364 1366 1368 1370 1372 1374 1375 1377 1379 1380 1382 1383 1384 1385 1387 1388 1389 1390 1392 1393 1394 1395 1397 1398 1399 1400 1401 1402 1403
1323 1322 1322 1321 1321 1321 1321 1321 1320 1320 1320 1320 1321 1322 1323 1323 1324 1327 1329 1330 1331 1333 1334 1335 1337 1338 1340 1342 1343 1344 1346 1348 1350 1352 1354 1357 1358 1360 1361 1363 1365 1367 1369 1371 1373 1374 1376 1378 1379 1381 1382 1383 1385 1386 1387 1388 1389 1390 1392 1393 1394 1395 1396 1397 1398 1399 1400 1402 1403
1325 1324 1323 1323 1323 1323 1323 1322 1322 1323 1323 1323 1323 1324 1325 1326 1327 1329 1331 1332 1333 1334 1336 1337 1338 1340 1342 1343 1344 1346 1348 1350 1352 1354 1356 1358 1360 1361 1363 1364 1366 1368 1370 1372 1373 1375 1377 1378 1379 1381 1383 1384 1385 1386 1387 1388 1389 1390 1391 1392 1393 1394 1395 1396 1398 1398 1400 1401 1402
1327 1326 1325 1325 1325 1324 1324 1324 1324 1324 1325 1325 1326 1326 1328 1328 1330 1331 1332 1333 1335 1336 1338 1339 1340 1342 1343 1344 1346 1348 1349 1352 1354 1356 1357 1359 1361 1362 1364 1365 1367 1369 1371 1373 1374 1376 1377 1378 1380 1381 1383 1384 1385 1386 1387 1388 1388 1389 1391 1392 1393 1394 1395 1396 1397 1398 1399 1400 1401
1329 1328 1327 1327 1327 1327 1326 1326 1326 1326 1327 1327 1328 1329 1330 1331 1332 1333 1334 1336 1337 1338 1339 1341 1342 1343 1345 1346 1348 1349 1351 1353 1355 1357 1358 1360 1362 1363 1365 1366 1368 1370 1372 1373 1375 1377 1378 1379 1380 1382 1383 1384 1385 1386 1387 1388 1388 1389 1390 1391 1392 1393 1394 1395 1397 1398 1399 1400 1401